Location: Unspecified
(41.1850°N, 73.2650°W)
Time: 18:48:09
(UTC+00:00)

Okean 1 - Visible Passes

Search period start: 07 March 2026 00:00
Search period end: 17 March 2026 00:00
Orbit: 462 x 480 km, 82.5° (Epoch: 7 March)

Date Brightness Start Highest point End Pass type
(mag) Time Alt. Az. Time Alt. Az. Time Alt. Az.
8 Mar 6.7 23:56:38 10° WNW 23:58:15 13° W 23:59:52 10° WSW visible
9 Mar 7.2 10:30:53 10° E 10:31:18 10° E 10:31:43 10° ENE visible
9 Mar 6.0 23:26:35 10° NW 23:29:25 23° W 23:32:15 10° SW visible
12 Mar 5.9 10:35:38 10° SE 10:38:37 24° E 10:41:35 10° NE visible
13 Mar 6.6 10:07:49 10° ESE 10:09:41 14° E 10:11:33 10° NE visible
16 Mar 5.1 10:13:29 10° SSE 10:16:43 32° E 10:19:57 10° NNE visible
